Flag for Greenland

Past Weather in Ittoqqortoormiit, Greenland — Yesterday and Last 2 Weeks

Now
24 °F

Light snow. Overcast.


Feels Like: 24 °F
Forecast: 22 / 18 °F
Wind: 1 mph from South

Location: Scoresbysund
Current Time: Sep 27, 2020 at 2:54:01 am
Latest Report: Sep 27, 2020 at 1:00 am
Visibility: 19 mi
Pressure29.67 "Hg
Humidity: 94%
Dew Point: 22 °F
Location of IttoqqortoormiitLocation

Past Weather in Ittoqqortoormiit — Graph

°F

Ittoqqortoormiit Temperature Yesterday

Maximum temperature yesterday: 25 °F (at 10:00 am)
Minimum temperature yesterday: 21 °F (at 7:00 am)
Average temperature yesterday: 24 °F

High & Low Weather Summary for the Past Weeks

 TemperatureHumidityPressure
High39 °F (Sep 16, 5:00 pm)100% (Sep 16, 10:00 pm)30.07 "Hg (Sep 16, 10:00 pm)
Low20 °F (Sep 25, 8:00 am)31% (Sep 15, 1:00 pm)29.32 "Hg (Sep 19, 5:00 pm)
Average29 °F70%29.76 "Hg
* Reported Sep 12 1:00 am — Sep 27 1:00 am, Ittoqqortoormiit. Weather by CustomWeather, © 2020

Note: Actual official high and low records may vary slightly from our data, if they occured in-between our weather recording intervals... More about our weather records

Ittoqqortoormiit Weather History for the Previous 24 Hours

Scroll right to see more
 ConditionsComfort  
Time TempWeatherWind HumidityBarometerVisibility
1:00 am
Sun, Sep 27
24 °FLight snow. Overcast.1 mph94%29.67 "Hg19 mi
12:00 am24 °FCold.2 mph94%29.67 "Hg11 mi
11:00 pm
Sat, Sep 26
24 °FCold.3 mph94%29.67 "Hg22 mi
10:00 pm24 °FFog.2 mph92%29.66 "Hg5 mi
9:00 pm24 °FCold.7 mph86%29.66 "Hg31 mi
8:00 pm24 °FCold.2 mph85%29.66 "Hg31 mi
7:00 pm24 °FCold.6 mph84%29.65 "Hg13 mi
6:00 pm24 °FCold.7 mph78%29.65 "Hg28 mi
5:00 pm24 °FLight snow. Cloudy.2 mph79%29.65 "Hg6 mi
4:00 pm25 °FCold.3 mph79%29.65 "Hg31 mi
3:00 pm24 °FCold.1 mph80%29.65 "Hg31 mi
2:00 pm24 °FLight snow. Cloudy.3 mph84%29.67 "Hg2 mi
1:00 pm24 °FSnow flurries. Cloudy.2 mph75%29.67 "Hg22 mi
12:00 pm24 °FCold.2 mph80%29.69 "Hg31 mi
11:00 am25 °FCold.1 mph78%29.69 "Hg31 mi
10:00 am25 °FChilly.1 mph72%29.69 "Hg31 mi
9:00 am21 °FCold.5 mph77%29.70 "Hg31 mi
8:00 am21 °FCold.5 mph78%29.70 "Hg31 mi
7:00 am21 °FCold.3 mph78%29.71 "Hg31 mi
6:00 am22 °FCold.6 mph78%29.71 "Hg31 mi
5:00 am23 °FCold.1 mph79%29.71 "Hg31 mi
4:00 am24 °FCold.1 mph81%29.72 "Hg31 mi
3:00 am24 °FCold.3 mph75%29.72 "Hg31 mi
2:00 am24 °FCold.2 mph81%29.73 "Hg31 mi
Weather by CustomWeather, © 2020

See weather overview